ASTRA 1M

Last updated on Thu Aug 13 2026 00:02:58 GMT+0000 (Coordinated Universal Time)

1 33436U 08057A 26224.57590815 .00000103 00000+0 00000+0 0 9997 2 33436 0.4368 82.8778 0003982 62.9156 41.9491 1.00269160 46309
UTC large
Height (km)
Speed (km/s)
/
Latitude / Longitude
Inclination (degrees)
Orbital Period (minutes)
Azimuth
Elevation
Range (km)
Doppler Factor

Next 0 passes for location: London (51.5072 / 0.1276)

No passes found over London.
ASTRA 1M